Regional Weather Roundup
Issued by NWS Bismarck, ND

Home | Current Version | Previous Version | Text Only | Print | Product List | Glossary On
Versions: 1 2 3 4 5 6 7 8 9 10 11 12 13 14 15 16 17 18 19 20 21 22 23 24 25 26 27 28 29 30 31 32 33 34 35 36 37 38 39 40 41 42 43 44 45 46 47 48 49 50
000
ASUS43 KBIS 290120
RWRBIS

NWR BROADCAST TEXT
NATIONAL WEATHER SERVICE BISMARCK ND
800 PM CDT THU AUG 28 2014

NOTE: "FAIR" INDICATES FEW OR NO CLOUDS BELOW 12,000 FEET WITH NO
SIGNIFICANT WEATHER AND/OR OBSTRUCTIONS TO VISIBILITY.


CITY           SKY/WX    TMP DP  RH WIND       PRES   REMARKS
WILLISTON      PTCLDY    87  49  26 W8        29.76S
MINOT          PTCLDY    79  60  52 SE8       29.77S
MINOT AFB      PTCLDY    78  63  58 S8        29.75F
BISMARCK       CLOUDY    71  66  84 SE8       29.85S
DICKINSON      PTCLDY    80  61  52 CALM      29.83S
GARRISON         N/A     76  66  71 SE6       29.81S
HETTINGER ARPT PTCLDY    76  58  53 SE9       29.87F
JAMESTOWN      CLOUDY    68  65  90 SE8       29.86S
BEACH            N/A     79  55  44 W6        29.85S
CARRINGTON     FAIR      68  68 100 S8        29.86S
HAZEN          FAIR      73  66  78 S13       29.82S
MANDAN         FAIR      68  66  94 S6        29.86S
OAKES            N/A     64  64 100 SE10      29.86F FOG
STANLEY        FAIR      73  63  68 S5        29.78S
TIOGA          FAIR      73  59  60 N5        29.80S
$$

CITY           SKY/WX    TMP DP  RH WIND       PRES   REMARKS
GRAND FORKS    CLOUDY    71  65  81 S14       29.85S
GRAND FORKS AF CLOUDY    70  69  97 S12       29.86S
DEVILS LAKE    CLOUDY    72  63  73 S14       29.82S
FARGO          CLOUDY    67  64  90 SE10      29.87F
CANDO          FAIR      73  66  78 S5        29.82S
GRAFTON        FAIR      68  66  94 S15G21    29.83F
ROLLA          FAIR      72  68  88 S10       29.82S
WALHALLA         N/A     75  72  88 S8        29.80S
$$

CITY           SKY/WX    TMP DP  RH WIND       PRES   REMARKS
ABERDEEN       HVY RAIN  66  66 100 E9        29.86S FOG
MOBRIDGE       CLOUDY    68  67  96 E5        29.84F
BUFFALO          N/A     80  53  39 E6        29.83S
RAPID CITY     CLOUDY    73  62  68 E5        29.92S
GLASGOW        CLEAR     83  50  31 NW9       29.81S
SIDNEY         CLEAR     77  55  47 W6        29.80R
WOLF POINT     CLEAR     84  50  30 W8        29.79S
GLENDIVE       CLEAR     79  55  44 NW7       29.83S
MILES CITY     CLEAR     84  45  25 W8        29.84S
BAKER          CLEAR     81  52  36 NW5       29.87F
$$

CITY           SKY/WX    TMP DP  RH WIND       PRES   REMARKS
BILLINGS       PTCLDY    85  45  24 NE3       29.90F
GREAT FALLS    SUNNY     84  31  14 W18G24    29.88S
REGINA         MOCLDY    72  55  56 N15G21    29.80R
ESTEVAN        PTCLDY    81  63  54 W3        29.73F
$$




USA.gov is the U.S. government's official web portal to all federal, state and local government web resources and services.